Starlink 4529

decayed
NORAD ID: 53437 Int'l Des: 2022-097 Owner: SPXS Country: US Constellation: starlink
LEOCIRCULAR

关于 Starlink 4529

正在加载描述...

高度历史

Altitude vs Time

uPlot chart will show altitude changes over time

两行轨道根数

1 53437U 22097BB 22229.52536171 .17025928 12205-4 22983-2 0 9993
2 53437 53.2060 211.1026 0013705 86.1078 17.0793 16.34243194 1587
Epoch: Aug 17, 2022 • Age: 31330 hours

当前状态

Position data unavailable
发射日期 Aug 10, 2022
运行时间 3.5 years
衰减日期 Aug 17, 2022
类型 internet

技术详情

分类 Payload
质量 297.00 kg
干质量 275.00 kg
总质量 297.00 kg
长度 0.20 m
直径 2.80 m
跨度 9.00 m
形状 Box + pan
制造商 SPXS
平台类型 Starlink
阶段状态 Unknown Transfer Status
所有者/国家 SPXS/US

大型星座

Loading constellations...